,,,PA_Meas_PMT16A,,PR_Meas_QMR101_102,,RH_Meas_QMH101,,SR_Meas_QMS101,,TA_Meas_QMH101,,GenWind,,GenWind,
date,time,status,PA,status,PR,status,RH,status,SR,status,TA,status,DirAvg,status,SpdAvg,
2011-04-22, 00:00:04,VALID,1004.71,VALID,0,INVALID,163.662,VALID,0,VALID,25.1832,VALID,93,VALID,0.368359,
2011-04-22, 00:01:04,VALID,1004.73,VALID,0,INVALID,163.67,VALID,0,VALID,25.2027,VALID,93,VALID,0.153516,
2011-04-22, 00:02:04,VALID,1004.71,VALID,0,INVALID,163.655,VALID,0,VALID,25.1813,VALID,87,VALID,0.307031,
2011-04-22, 00:03:04,VALID,1004.7,VALID,0,INVALID,163.632,VALID,0,VALID,25.2027,VALID,78,VALID,0.430859,
2011-04-22, 00:04:04,VALID,1004.69,VALID,0,INVALID,163.655,VALID,0,VALID,25.2027,VALID,72,VALID,0.265625,
2011-04-22, 00:05:04,VALID,1004.69,VALID,0,INVALID,163.639,VALID,0,VALID,25.2027,VALID,72,VALID,0.339844,
2011-04-22, 00:06:04,VALID,1004.67,VALID,0,INVALID,163.647,VALID,0,VALID,25.224,VALID,72,VALID,0.166406,
2011-04-22, 00:07:04,VALID,1004.67,VALID,0,INVALID,163.632,VALID,0,VALID,25.1813,VALID,70,VALID,0.371094,
2011-04-22, 00:08:04,VALID,1004.68,VALID,0,INVALID,163.632,VALID,0,VALID,25.2027,VALID,81,VALID,0.610156,
2011-04-22, 00:09:04,VALID,1004.66,VALID,0,INVALID,163.655,VALID,0,VALID,25.2007,VALID,72,VALID,0.499609,
2011-04-22, 00:10:04,VALID,1004.68,VALID,0,INVALID,163.617,VALID,0,VALID,25.2007,VALID,72,VALID,0.40625,
2011-04-22, 00:11:04,VALID,1004.67,VALID,0,INVALID,163.639,VALID,0,VALID,25.2416,VALID,73,VALID,0.472656,
2011-04-22, 00:12:04,VALID,1004.67,VALID,0,INVALID,163.655,VALID,0,VALID,25.2202,VALID,73,VALID,0.246484,
2011-04-22, 00:13:04,VALID,1004.65,VALID,0,INVALID,163.632,VALID,0,VALID,25.2416,VALID,74,VALID,0.671094,
2011-04-22, 00:14:04,VALID,1004.63,VALID,0,INVALID,163.67,VALID,0,VALID,25.2611,VALID,66,VALID,0.315234,
2011-04-22, 00:15:04,VALID,1004.64,VALID,0,INVALID,163.632,VALID,0,VALID,25.2806,VALID,74,VALID,0.378516,
2011-04-22, 00:16:04,VALID,1004.61,VALID,0,INVALID,163.655,VALID,0,VALID,25.2611,VALID,74,VALID,0.314063,
2011-04-22, 00:17:04,VALID,1004.62,VALID,0,INVALID,163.662,VALID,0,VALID,25.2786,VALID,81,VALID,0.438672,
2011-04-22, 00:18:04,VALID,1004.59,VALID,0,INVALID,163.639,VALID,0,VALID,25.2981,VALID,81,VALID,0.478516,
2011-04-22, 00:19:04,VALID,1004.56,VALID,0,INVALID,163.639,VALID,0,VALID,25.3195,VALID,81,VALID,0.169922,
2011-04-22, 00:20:04,VALID,1004.53,VALID,0,INVALID,163.639,VALID,0,VALID,25.3195,VALID,77,VALID,0.423828,
2011-04-22, 00:21:04,VALID,1004.51,VALID,0,INVALID,163.632,VALID,0,VALID,25.3195,VALID,84,VALID,0.925781,
2011-04-22, 00:22:04,VALID,1004.49,VALID,0,INVALID,163.632,VALID,0,VALID,25.3584,VALID,70,VALID,0.373437,
2011-04-22, 00:23:04,VALID,1004.49,VALID,0,INVALID,163.632,VALID,0,VALID,25.3176,VALID,78,VALID,0.470703,
2011-04-22, 00:24:04,VALID,1004.46,VALID,0,INVALID,163.662,VALID,0,VALID,25.3176,VALID,74,VALID,0.164844,
2011-04-22, 00:25:04,VALID,1004.41,VALID,0,INVALID,163.632,VALID,0,VALID,25.3,VALID,59,VALID,0.396875,
2011-04-22, 00:26:04,VALID,1004.37,VALID,0,INVALID,163.655,VALID,0,VALID,25.2786,VALID,60,VALID,0.053125,
2011-04-22, 00:27:04,VALID,1004.36,VALID,0,INVALID,163.647,VALID,0,VALID,25.2806,VALID,60,VALID,0,
2011-04-22, 00:28:04,VALID,1004.36,VALID,0,INVALID,163.647,VALID,0,VALID,25.2611,VALID,60,VALID,0.437891,
2011-04-22, 00:29:04,VALID,1004.33,VALID,0,INVALID,163.67,VALID,0,VALID,25.2611,VALID,59,VALID,0.199609,
2011-04-22, 00:30:04,VALID,1004.29,VALID,0,INVALID,163.67,VALID,0,VALID,25.2806,VALID,88,VALID,0.484766,
2011-04-22, 00:31:04,VALID,1004.26,VALID,0,INVALID,163.647,VALID,0,VALID,25.3,VALID,96,VALID,0.715234,
2011-04-22, 00:32:04,VALID,1004.24,VALID,0,INVALID,163.624,VALID,0,VALID,25.3195,VALID,95,VALID,0.347266,
2011-04-22, 00:33:04,VALID,1004.2,VALID,0,INVALID,163.639,VALID,0,VALID,25.3176,VALID,94,VALID,0.6125,
2011-04-22, 00:34:04,VALID,1004.21,VALID,0,INVALID,163.639,VALID,0,VALID,25.3584,VALID,90,VALID,0.690234,
2011-04-22, 00:35:04,VALID,1004.16,VALID,0,INVALID,163.639,VALID,0,VALID,25.376,VALID,95,VALID,0.709375,
2011-04-22, 00:36:04,VALID,1004.16,VALID,0,INVALID,163.639,VALID,0,VALID,25.4363,VALID,69,VALID,0.500781,
2011-04-22, 00:37:04,VALID,1004.15,VALID,0,INVALID,163.632,VALID,0,VALID,25.4363,VALID,78,VALID,0.796094,
2011-04-22, 00:38:04,VALID,1004.11,VALID,0,INVALID,163.639,VALID,0,VALID,25.4344,VALID,70,VALID,0.366797,
2011-04-22, 00:39:04,VALID,1004.1,VALID,0,INVALID,163.617,VALID,0,VALID,25.4344,VALID,77,VALID,0.369922,
2011-04-22, 00:40:04,VALID,1004.11,VALID,0,INVALID,163.639,VALID,0,VALID,25.4558,VALID,76,VALID,0.189063,
2011-04-22, 00:41:04,VALID,1004.1,VALID,0,INVALID,163.647,VALID,0,VALID,25.4967,VALID,76,VALID,0.639063,
2011-04-22, 00:42:04,VALID,1004.1,VALID,0,INVALID,163.624,VALID,0,VALID,25.4948,VALID,56,VALID,0.249609,
2011-04-22, 00:43:04,VALID,1004.09,VALID,0,INVALID,163.632,VALID,0,VALID,25.4948,VALID,83,VALID,0.310937,
2011-04-22, 00:44:04,VALID,1004.11,VALID,0,INVALID,163.632,VALID,0,VALID,25.5357,VALID,41,VALID,0.683203,
2011-04-22, 00:45:04,VALID,1004.07,VALID,0,INVALID,163.624,VALID,0,VALID,25.5357,VALID,87,VALID,0.482031,
2011-04-22, 00:46:04,VALID,1004.05,VALID,0,INVALID,163.632,VALID,0,VALID,25.5532,VALID,87,VALID,0.752344,
2011-04-22, 00:47:04,VALID,1004.05,VALID,0,INVALID,163.617,VALID,0,VALID,25.5532,VALID,82,VALID,0.303516,
2011-04-22, 00:48:04,VALID,1004.06,VALID,0,INVALID,163.647,VALID,0,VALID,25.5727,VALID,85,VALID,0.416797,
2011-04-22, 00:49:04,VALID,1004.02,VALID,0,INVALID,163.632,VALID,0,VALID,25.5532,VALID,82,VALID,0.730859,
2011-04-22, 00:50:04,VALID,1004.04,VALID,0,INVALID,163.578,VALID,0,VALID,25.5532,VALID,52,VALID,0.265625,
2011-04-22, 00:51:04,VALID,1004.03,VALID,0,INVALID,163.617,VALID,0,VALID,25.5123,VALID,82,VALID,0.345703,
2011-04-22, 00:52:04,VALID,1004.02,VALID,0,INVALID,163.624,VALID,0,VALID,25.5142,VALID,49,VALID,0.435937,
2011-04-22, 00:53:04,VALID,1004.01,VALID,0,INVALID,163.632,VALID,0,VALID,25.4734,VALID,49,VALID,0.184766,
2011-04-22, 00:54:04,VALID,1003.99,VALID,0,INVALID,163.624,VALID,0,VALID,25.4967,VALID,92,VALID,0.517578,
2011-04-22, 00:55:04,VALID,1003.97,VALID,0,INVALID,163.639,VALID,0,VALID,25.4753,VALID,92,VALID,0.297266,
2011-04-22, 00:56:04,VALID,1003.95,VALID,0,INVALID,163.609,VALID,0,VALID,25.4753,VALID,65,VALID,0.355859,
2011-04-22, 00:57:04,VALID,1003.92,VALID,0,INVALID,163.639,VALID,0,VALID,25.4539,VALID,47,VALID,0.465625,
2011-04-22, 00:58:04,VALID,1003.9,VALID,0,INVALID,163.624,VALID,0,VALID,25.4753,VALID,24,VALID,0.425781,
2011-04-22, 00:59:04,VALID,1003.87,VALID,0,INVALID,163.609,VALID,0,VALID,25.4539,VALID,29,VALID,0.429688,
2011-04-22, 01:00:04,VALID,1003.85,VALID,0,INVALID,163.624,VALID,0,VALID,25.4558,VALID,23,VALID,0.214453,
2011-04-22, 01:01:04,VALID,1003.84,VALID,0,INVALID,163.647,VALID,0,VALID,25.4149,VALID,23,VALID,0.305859,
2011-04-22, 01:02:04,VALID,1003.82,VALID,0,INVALID,163.647,VALID,0,VALID,25.4169,VALID,23,VALID,0.175781,
2011-04-22, 01:03:04,VALID,1003.82,VALID,0,INVALID,163.639,VALID,0,VALID,25.3779,VALID,23,VALID,0.0496094,
2011-04-22, 01:04:04,VALID,1003.83,VALID,0,INVALID,163.647,VALID,0,VALID,25.337,VALID,23,VALID,0.0753906,
2011-04-22, 01:05:04,VALID,1003.8,VALID,0,INVALID,163.655,VALID,0,VALID,25.2981,VALID,23,VALID,0.384766,
2011-04-22, 01:06:04,VALID,1003.82,VALID,0,INVALID,163.647,VALID,0,VALID,25.2806,VALID,23,VALID,0.3,
2011-04-22, 01:07:04,VALID,1003.84,VALID,0,INVALID,163.647,VALID,0,VALID,25.2416,VALID,23,VALID,0.438672,
2011-04-22, 01:08:04,VALID,1003.83,VALID,0,INVALID,163.655,VALID,0,VALID,25.2221,VALID,23,VALID,0.00351562,
2011-04-22, 01:09:04,VALID,1003.84,VALID,0,INVALID,163.655,VALID,0,VALID,25.2027,VALID,23,VALID,0.0714844,
2011-04-22, 01:10:04,VALID,1003.81,VALID,0,INVALID,163.639,VALID,0,VALID,25.1832,VALID,23,VALID,0.146094,
2011-04-22, 01:11:04,VALID,1003.83,VALID,0,INVALID,163.662,VALID,0,VALID,25.1248,VALID,23,VALID,0.0136719,
2011-04-22, 01:12:04,VALID,1003.82,VALID,0,INVALID,163.647,VALID,0,VALID,25.0644,VALID,23,VALID,0.0195313,
2011-04-22, 01:13:04,VALID,1003.81,VALID,0,INVALID,163.662,VALID,0,VALID,25.0858,VALID,23,VALID,0.00351562,
2011-04-22, 01:14:04,VALID,1003.78,VALID,0,INVALID,163.662,VALID,0,VALID,25.0469,VALID,23,VALID,0,
2011-04-22, 01:15:04,VALID,1003.76,VALID,0,INVALID,163.647,VALID,0,VALID,25.0469,VALID,23,VALID,0,
2011-04-22, 01:16:04,VALID,1003.8,VALID,0,INVALID,163.67,VALID,0,VALID,25.0274,VALID,23,VALID,0,
2011-04-22, 01:17:04,VALID,1003.76,VALID,0,INVALID,163.655,VALID,0,VALID,24.9885,VALID,31,VALID,0.269922,
2011-04-22, 01:18:04,VALID,1003.76,VALID,0,INVALID,163.662,VALID,0,VALID,24.969,VALID,31,VALID,0.0121094,
2011-04-22, 01:19:04,VALID,1003.74,VALID,0,INVALID,163.67,VALID,0,VALID,24.9495,VALID,31,VALID,0.0984375,
2011-04-22, 01:20:04,VALID,1003.73,VALID,0,INVALID,163.693,VALID,0,VALID,24.93,VALID,31,VALID,0.0921875,
2011-04-22, 01:21:04,VALID,1003.71,VALID,0,INVALID,163.678,VALID,0,VALID,24.9125,VALID,31,VALID,0.283594,
2011-04-22, 01:22:04,VALID,1003.71,VALID,0,INVALID,163.662,VALID,0,VALID,24.8735,VALID,48,VALID,0.242188,
2011-04-22, 01:23:04,VALID,1003.71,VALID,0,INVALID,163.693,VALID,0,VALID,24.8522,VALID,50,VALID,0.208203,
2011-04-22, 01:24:04,VALID,1003.7,VALID,0,INVALID,163.701,VALID,0,VALID,24.8113,VALID,52,VALID,0.456641,
2011-04-22, 01:25:04,VALID,1003.68,VALID,0,INVALID,163.67,VALID,0,VALID,24.7724,VALID,52,VALID,0.339063,
2011-04-22, 01:26:04,VALID,1003.69,VALID,0,INVALID,163.678,VALID,0,VALID,24.7529,VALID,52,VALID,0.406641,
2011-04-22, 01:27:04,VALID,1003.7,VALID,0,INVALID,163.693,VALID,0,VALID,24.7743,VALID,52,VALID,0.219531,
2011-04-22, 01:28:04,VALID,1003.69,VALID,0,INVALID,163.693,VALID,0,VALID,24.7743,VALID,68,VALID,0.0480469,
2011-04-22, 01:29:04,VALID,1003.68,VALID,0,INVALID,163.67,VALID,0,VALID,24.7743,VALID,68,VALID,0.00078125,
2011-04-22, 01:30:04,VALID,1003.66,VALID,0,INVALID,163.662,VALID,0,VALID,24.7743,VALID,68,VALID,0.333594,
2011-04-22, 01:31:04,VALID,1003.66,VALID,0,INVALID,163.701,VALID,0,VALID,24.7529,VALID,55,VALID,0.537891,
2011-04-22, 01:32:04,VALID,1003.65,VALID,0,INVALID,163.685,VALID,0,VALID,24.7335,VALID,34,VALID,0.421094,
2011-04-22, 01:33:04,VALID,1003.67,VALID,0,INVALID,163.67,VALID,0,VALID,24.7548,VALID,34,VALID,0.286328,
2011-04-22, 01:34:04,VALID,1003.67,VALID,0,INVALID,163.708,VALID,0,VALID,24.7159,VALID,34,VALID,0.223828,
2011-04-22, 01:35:04,VALID,1003.64,VALID,0,INVALID,163.67,VALID,0,VALID,24.6964,VALID,38,VALID,0.219141,
2011-04-22, 01:36:04,VALID,1003.64,VALID,0,INVALID,163.678,VALID,0,VALID,24.7159,VALID,38,VALID,0.028125,
2011-04-22, 01:37:04,VALID,1003.64,VALID,0,INVALID,163.685,VALID,0,VALID,24.6964,VALID,38,VALID,0.332812,
2011-04-22, 01:38:04,VALID,1003.63,VALID,0,INVALID,163.678,VALID,0,VALID,24.7937,VALID,42,VALID,0.331641,
2011-04-22, 01:39:04,VALID,1003.64,VALID,0,INVALID,163.67,VALID,0,VALID,24.8132,VALID,67,VALID,0.178906,
2011-04-22, 01:40:04,VALID,1003.65,VALID,0,INVALID,163.678,VALID,0,VALID,24.8113,VALID,92,VALID,0.86875,
2011-04-22, 01:41:04,VALID,1003.69,VALID,0,INVALID,163.67,VALID,0,VALID,24.93,VALID,66,VALID,0.296875,
2011-04-22, 01:42:04,VALID,1003.68,VALID,0,INVALID,163.662,VALID,0,VALID,24.969,VALID,66,VALID,0.366016,
2011-04-22, 01:43:04,VALID,1003.7,VALID,0,INVALID,163.662,VALID,0,VALID,24.969,VALID,66,VALID,0.342969,
2011-04-22, 01:44:04,VALID,1003.73,VALID,0,INVALID,163.655,VALID,0,VALID,24.9671,VALID,66,VALID,0.367578,
2011-04-22, 01:45:04,VALID,1003.72,VALID,0,INVALID,163.678,VALID,0,VALID,25.0079,VALID,66,VALID,0.192188,
2011-04-22, 01:46:04,VALID,1003.71,VALID,0,INVALID,163.655,VALID,0,VALID,24.9866,VALID,66,VALID,0,
2011-04-22, 01:47:04,VALID,1003.73,VALID,0,INVALID,163.662,VALID,0,VALID,25.0079,VALID,66,VALID,0,
2011-04-22, 01:48:04,VALID,1003.74,VALID,0,INVALID,163.639,VALID,0,VALID,25.0098,VALID,67,VALID,0.421094,
2011-04-22, 01:49:04,VALID,1003.76,VALID,0,INVALID,163.655,VALID,0,VALID,25.0079,VALID,75,VALID,0.591406,
2011-04-22, 01:50:04,VALID,1003.75,VALID,0,INVALID,163.662,VALID,0,VALID,25.0274,VALID,76,VALID,0.2375,
2011-04-22, 01:51:04,VALID,1003.75,VALID,0,INVALID,163.647,VALID,0,VALID,25.0469,VALID,76,VALID,0.162109,
2011-04-22, 01:52:04,VALID,1003.77,VALID,0,INVALID,163.655,VALID,0,VALID,25.0079,VALID,76,VALID,0.250781,
2011-04-22, 01:53:04,VALID,1003.79,VALID,0,INVALID,163.678,VALID,0,VALID,25.0079,VALID,76,VALID,0.121484,
2011-04-22, 01:54:04,VALID,1003.77,VALID,0,INVALID,163.67,VALID,0,VALID,24.9885,VALID,67,VALID,0.354688,
2011-04-22, 01:55:04,VALID,1003.79,VALID,0,INVALID,163.678,VALID,0,VALID,25.0293,VALID,61,VALID,0.752734,
2011-04-22, 01:56:04,VALID,1003.79,VALID,0,INVALID,163.685,VALID,0,VALID,25.0469,VALID,51,VALID,0.590625,
2011-04-22, 01:57:04,VALID,1003.82,VALID,0,INVALID,163.639,VALID,0,VALID,25.0469,VALID,37,VALID,0.693359,
2011-04-22, 01:58:04,VALID,1003.82,VALID,0,INVALID,163.647,VALID,0.100563,VALID,24.9866,VALID,37,VALID,0.310156,
2011-04-22, 01:59:04,VALID,1003.78,VALID,0,INVALID,163.693,VALID,0,VALID,25.0079,VALID,37,VALID,0.257813,
2011-04-22, 02:00:04,VALID,1003.79,VALID,0,INVALID,163.67,VALID,0,VALID,24.9885,VALID,37,VALID,0.212891,
2011-04-22, 02:01:04,VALID,1003.78,VALID,0,INVALID,163.67,VALID,0,VALID,24.9885,VALID,37,VALID,0.0703125,
2011-04-22, 02:02:04,VALID,1003.81,VALID,0,INVALID,163.678,VALID,0,VALID,24.9885,VALID,37,VALID,0,
2011-04-22, 02:03:04,VALID,1003.8,VALID,0,INVALID,163.678,VALID,0,VALID,24.9885,VALID,37,VALID,0.193359,
2011-04-22, 02:04:04,VALID,1003.78,VALID,0,INVALID,163.647,VALID,0,VALID,24.9476,VALID,37,VALID,0.130859,
2011-04-22, 02:05:04,VALID,1003.81,VALID,0,INVALID,163.67,VALID,0,VALID,24.9495,VALID,37,VALID,0.0265625,
2011-04-22, 02:06:04,VALID,1003.79,VALID,0,INVALID,163.67,VALID,0,VALID,24.93,VALID,37,VALID,0.0507813,
2011-04-22, 02:07:04,VALID,1003.78,VALID,0,INVALID,163.662,VALID,0,VALID,24.93,VALID,37,VALID,0.224219,
2011-04-22, 02:08:04,VALID,1003.8,VALID,0,INVALID,163.678,VALID,0,VALID,24.8697,VALID,37,VALID,0.302344,
2011-04-22, 02:09:04,VALID,1003.8,VALID,0,INVALID,163.678,VALID,0,VALID,24.8522,VALID,37,VALID,0.505078,
2011-04-22, 02:10:04,VALID,1003.79,VALID,0,INVALID,163.662,VALID,0,VALID,24.8327,VALID,37,VALID,0.542188,
2011-04-22, 02:11:04,VALID,1003.81,VALID,0,INVALID,163.685,VALID,0.100563,VALID,24.7937,VALID,34,VALID,0.624219,
2011-04-22, 02:12:04,VALID,1003.8,VALID,0,INVALID,163.67,VALID,0,VALID,24.7353,VALID,34,VALID,0.457422,
2011-04-22, 02:13:04,VALID,1003.79,VALID,0,INVALID,163.678,VALID,0,VALID,24.714,VALID,34,VALID,0.415625,
2011-04-22, 02:14:04,VALID,1003.79,VALID,0,INVALID,163.693,VALID,0,VALID,24.675,VALID,24,VALID,0.608203,
2011-04-22, 02:15:04,VALID,1003.77,VALID,0,INVALID,163.678,VALID,0,VALID,24.6361,VALID,7,VALID,0.590234,
2011-04-22, 02:16:04,VALID,1003.79,VALID,0,INVALID,163.685,VALID,0.100563,VALID,24.6166,VALID,7,VALID,0.433203,
2011-04-22, 02:17:04,VALID,1003.78,VALID,0,INVALID,163.693,VALID,0.100563,VALID,24.5796,VALID,7,VALID,0.407422,
2011-04-22, 02:18:04,VALID,1003.76,VALID,0,INVALID,163.708,VALID,0,VALID,24.5601,VALID,7,VALID,0.319141,
2011-04-22, 02:19:04,VALID,1003.74,VALID,0,INVALID,163.701,VALID,0,VALID,24.4998,VALID,7,VALID,0.343359,
2011-04-22, 02:20:04,VALID,1003.75,VALID,0,INVALID,163.693,VALID,0,VALID,24.4822,VALID,7,VALID,0.417969,
2011-04-22, 02:21:04,VALID,1003.75,VALID,0,INVALID,163.708,VALID,0,VALID,24.4609,VALID,7,VALID,0.383984,
2011-04-22, 02:22:04,VALID,1003.73,VALID,0,INVALID,163.716,VALID,0,VALID,24.4433,VALID,7,VALID,0.440625,
2011-04-22, 02:23:04,VALID,1003.68,VALID,0,INVALID,163.716,VALID,0,VALID,24.4238,VALID,7,VALID,0.396875,
2011-04-22, 02:24:04,VALID,1003.68,VALID,0,INVALID,163.716,VALID,0,VALID,24.383,VALID,7,VALID,0.272656,
2011-04-22, 02:25:04,VALID,1003.69,VALID,0,INVALID,163.723,VALID,0,VALID,24.3636,VALID,7,VALID,0.163281,
2011-04-22, 02:26:04,VALID,1003.64,VALID,0,INVALID,163.701,VALID,0,VALID,24.3459,VALID,7,VALID,0,
2011-04-22, 02:27:04,VALID,1003.64,VALID,0,INVALID,163.701,VALID,0,VALID,24.3265,VALID,7,VALID,0.233984,
2011-04-22, 02:28:04,VALID,1003.62,VALID,0,INVALID,163.693,VALID,0,VALID,24.307,VALID,7,VALID,0.291406,
2011-04-22, 02:29:04,VALID,1003.61,VALID,0,INVALID,163.708,VALID,0,VALID,24.2857,VALID,7,VALID,0.164453,
2011-04-22, 02:30:04,VALID,1003.59,VALID,0,INVALID,163.693,VALID,0,VALID,24.2681,VALID,7,VALID,0,
2011-04-22, 02:31:04,VALID,1003.59,VALID,0,INVALID,163.739,VALID,0,VALID,24.2468,VALID,10,VALID,0.640234,
2011-04-22, 02:32:04,VALID,1003.57,VALID,0,INVALID,163.701,VALID,0,VALID,24.2875,VALID,11,VALID,0.288672,
2011-04-22, 02:33:04,VALID,1003.59,VALID,0,INVALID,163.723,VALID,0,VALID,24.2875,VALID,11,VALID,0.291797,
2011-04-22, 02:34:04,VALID,1003.53,VALID,0,INVALID,163.708,VALID,0,VALID,24.307,VALID,11,VALID,0.239063,
2011-04-22, 02:35:04,VALID,1003.53,VALID,0,INVALID,163.731,VALID,0,VALID,24.2681,VALID,11,VALID,0.277344,
2011-04-22, 02:36:04,VALID,1003.5,VALID,0,INVALID,163.708,VALID,0,VALID,24.2681,VALID,11,VALID,0.250391,
2011-04-22, 02:37:04,VALID,1003.47,VALID,0,INVALID,163.693,VALID,0,VALID,24.2681,VALID,11,VALID,0.264844,
2011-04-22, 02:38:04,VALID,1003.48,VALID,0,INVALID,163.708,VALID,0,VALID,24.2681,VALID,11,VALID,0.216797,
2011-04-22, 02:39:04,VALID,1003.44,VALID,0,INVALID,163.701,VALID,0,VALID,24.2486,VALID,11,VALID,0.370313,
2011-04-22, 02:40:04,VALID,1003.42,VALID,0,INVALID,163.731,VALID,0,VALID,24.2486,VALID,11,VALID,0.416016,
2011-04-22, 02:41:04,VALID,1003.42,VALID,0,INVALID,163.723,VALID,0,VALID,24.2273,VALID,11,VALID,0.458203,
2011-04-22, 02:42:04,VALID,1003.38,VALID,0,INVALID,163.723,VALID,0,VALID,24.2486,VALID,11,VALID,0.403125,
2011-04-22, 02:43:04,VALID,1003.36,VALID,0,INVALID,163.701,VALID,0,VALID,24.2078,VALID,11,VALID,0.438281,
2011-04-22, 02:44:04,VALID,1003.35,VALID,0,INVALID,163.716,VALID,0,VALID,24.2291,VALID,11,VALID,0.520703,
2011-04-22, 02:45:04,VALID,1003.33,VALID,0,INVALID,163.746,VALID,0,VALID,24.1902,VALID,14,VALID,0.555859,
2011-04-22, 02:46:04,VALID,1003.3,VALID,0,INVALID,163.731,VALID,0,VALID,24.1902,VALID,14,VALID,0.349609,
2011-04-22, 02:47:04,VALID,1003.24,VALID,0,INVALID,163.716,VALID,0,VALID,24.1689,VALID,14,VALID,0.376172,
2011-04-22, 02:48:04,VALID,1003.21,VALID,0,INVALID,163.723,VALID,0,VALID,24.1707,VALID,14,VALID,0.378906,
2011-04-22, 02:49:04,VALID,1003.2,VALID,0,INVALID,163.723,VALID,0,VALID,24.1707,VALID,15,VALID,0.346094,
2011-04-22, 02:50:04,VALID,1003.17,VALID,0,INVALID,163.739,VALID,0,VALID,24.1494,VALID,15,VALID,0.434766,
2011-04-22, 02:51:04,VALID,1003.17,VALID,0,INVALID,163.716,VALID,0,VALID,24.1707,VALID,27,VALID,0.2625,
2011-04-22, 02:52:04,VALID,1003.15,VALID,0,INVALID,163.746,VALID,0,VALID,24.1494,VALID,26,VALID,0.241016,
2011-04-22, 02:53:04,VALID,1003.17,VALID,0,INVALID,163.739,VALID,0,VALID,24.1707,VALID,27,VALID,0.450781,
2011-04-22, 02:54:04,VALID,1003.14,VALID,0,INVALID,163.716,VALID,0,VALID,24.1494,VALID,26,VALID,0.491797,
2011-04-22, 02:55:04,VALID,1003.14,VALID,0,INVALID,163.723,VALID,0,VALID,24.1513,VALID,26,VALID,0.530078,
2011-04-22, 02:56:04,VALID,1003.11,VALID,0,INVALID,163.723,VALID,0,VALID,24.13,VALID,26,VALID,0.448047,
2011-04-22, 02:57:04,VALID,1003.13,VALID,0,INVALID,163.723,VALID,0,VALID,24.13,VALID,26,VALID,0.476953,
2011-04-22, 02:58:04,VALID,1003.11,VALID,0,INVALID,163.754,VALID,0,VALID,24.13,VALID,26,VALID,0.347266,
2011-04-22, 02:59:04,VALID,1003.1,VALID,0,INVALID,163.723,VALID,0,VALID,24.1105,VALID,26,VALID,0.376563,
2011-04-22, 03:00:04,VALID,1003.06,VALID,0,INVALID,163.754,VALID,0,VALID,24.1318,VALID,26,VALID,0.384766,
2011-04-22, 03:01:04,VALID,1003.06,VALID,0,INVALID,163.723,VALID,0,VALID,24.1494,VALID,26,VALID,0.324219,
2011-04-22, 03:02:04,VALID,1003.03,VALID,0,INVALID,163.708,VALID,0,VALID,24.1689,VALID,50,VALID,0.416016,
2011-04-22, 03:03:04,VALID,1003.03,VALID,0,INVALID,163.731,VALID,0,VALID,24.2486,VALID,64,VALID,0.15625,
2011-04-22, 03:04:04,VALID,1003.02,VALID,0,INVALID,163.708,VALID,0,VALID,24.2857,VALID,64,VALID,0.0292969,
2011-04-22, 03:05:04,VALID,1003.01,VALID,0,INVALID,163.701,VALID,0,VALID,24.2857,VALID,64,VALID,0,
2011-04-22, 03:06:04,VALID,1003,VALID,0,INVALID,163.716,VALID,0,VALID,24.3441,VALID,69,VALID,0.0265625,
2011-04-22, 03:07:04,VALID,1003,VALID,0,INVALID,163.716,VALID,0,VALID,24.3849,VALID,69,VALID,0.259766,
2011-04-22, 03:08:04,VALID,1003.01,VALID,0,INVALID,163.678,VALID,0,VALID,24.3636,VALID,69,VALID,0.241016,
2011-04-22, 03:09:04,VALID,1003.04,VALID,0,INVALID,163.716,VALID,0,VALID,24.3636,VALID,69,VALID,0.371094,
2011-04-22, 03:10:04,VALID,1003.04,VALID,0,INVALID,163.708,VALID,0,VALID,24.383,VALID,43,VALID,0.416406,
2011-04-22, 03:11:04,VALID,1003.07,VALID,0,INVALID,163.723,VALID,0,VALID,24.3849,VALID,43,VALID,0.340234,
2011-04-22, 03:12:04,VALID,1003.09,VALID,0,INVALID,163.701,VALID,0,VALID,24.3636,VALID,42,VALID,0.476953,
2011-04-22, 03:13:04,VALID,1003.08,VALID,0,INVALID,163.716,VALID,0,VALID,24.3459,VALID,41,VALID,0.491406,
2011-04-22, 03:14:04,VALID,1003.1,VALID,0,INVALID,163.693,VALID,0,VALID,24.3246,VALID,33,VALID,0.439453,
2011-04-22, 03:15:04,VALID,1003.08,VALID,0,INVALID,163.693,VALID,0,VALID,24.3052,VALID,29,VALID,0.478906,
2011-04-22, 03:16:04,VALID,1003.1,VALID,0,INVALID,163.708,VALID,0,VALID,24.3246,VALID,28,VALID,0.296094,
2011-04-22, 03:17:04,VALID,1003.1,VALID,0,INVALID,163.723,VALID,0,VALID,24.3654,VALID,27,VALID,0.396094,
2011-04-22, 03:18:04,VALID,1003.09,VALID,0,INVALID,163.716,VALID,0,VALID,24.3246,VALID,27,VALID,0.425,
2011-04-22, 03:19:04,VALID,1003.12,VALID,0,INVALID,163.708,VALID,0,VALID,24.3654,VALID,27,VALID,0.209375,
2011-04-22, 03:20:04,VALID,1003.12,VALID,0,INVALID,163.723,VALID,0,VALID,24.3459,VALID,27,VALID,0.36875,
2011-04-22, 03:21:04,VALID,1003.12,VALID,0,INVALID,163.723,VALID,0,VALID,24.3052,VALID,27,VALID,0.357812,
2011-04-22, 03:22:04,VALID,1003.11,VALID,0,INVALID,163.693,VALID,0,VALID,24.3052,VALID,27,VALID,0.194531,
2011-04-22, 03:23:04,VALID,1003.14,VALID,0,INVALID,163.746,VALID,0,VALID,24.3459,VALID,27,VALID,0.287109,
2011-04-22, 03:24:04,VALID,1003.11,VALID,0,INVALID,163.708,VALID,0,VALID,24.3246,VALID,27,VALID,0.376563,
2011-04-22, 03:25:04,VALID,1003.13,VALID,0,INVALID,163.716,VALID,0,VALID,24.3459,VALID,27,VALID,0.298438,
2011-04-22, 03:26:04,VALID,1003.13,VALID,0,INVALID,163.701,VALID,0,VALID,24.3654,VALID,27,VALID,0.194531,
2011-04-22, 03:27:04,VALID,1003.1,VALID,0,INVALID,163.708,VALID,0,VALID,24.3459,VALID,27,VALID,0.301953,
2011-04-22, 03:28:04,VALID,1003.08,VALID,0,INVALID,163.731,VALID,0,VALID,24.3654,VALID,27,VALID,0.235156,
2011-04-22, 03:29:04,VALID,1003.05,VALID,0,INVALID,163.731,VALID,0,VALID,24.3441,VALID,27,VALID,0.274609,
2011-04-22, 03:30:04,VALID,1003.06,VALID,0,INVALID,163.701,VALID,0.100563,VALID,24.3654,VALID,27,VALID,0.0917969,
2011-04-22, 03:31:04,VALID,1003.03,VALID,0,INVALID,163.708,VALID,0.100563,VALID,24.3441,VALID,27,VALID,0.303125,
2011-04-22, 03:32:04,VALID,1003.01,VALID,0,INVALID,163.731,VALID,0,VALID,24.3849,VALID,27,VALID,0.101172,
2011-04-22, 03:33:04,VALID,1003.03,VALID,0,INVALID,163.723,VALID,0.100563,VALID,24.3441,VALID,27,VALID,0.0519531,
2011-04-22, 03:34:04,VALID,1003.01,VALID,0,INVALID,163.708,VALID,0.100563,VALID,24.3441,VALID,27,VALID,0.303906,
2011-04-22, 03:35:04,VALID,1003.05,VALID,0,INVALID,163.716,VALID,0,VALID,24.3849,VALID,27,VALID,0.267188,
2011-04-22, 03:36:04,VALID,1003.03,VALID,0,INVALID,163.708,VALID,0,VALID,24.3654,VALID,27,VALID,0.110937,
2011-04-22, 03:37:04,VALID,1003,VALID,0,INVALID,163.693,VALID,0,VALID,24.3441,VALID,27,VALID,0.0707031,
2011-04-22, 03:38:04,VALID,1003.03,VALID,0,INVALID,163.723,VALID,0.100563,VALID,24.3654,VALID,27,VALID,0.121484,
2011-04-22, 03:39:04,VALID,1003.05,VALID,0,INVALID,163.708,VALID,0,VALID,24.3441,VALID,27,VALID,0.478906,
2011-04-22, 03:40:04,VALID,1003.01,VALID,0,INVALID,163.693,VALID,0,VALID,24.3246,VALID,27,VALID,0.368359,
2011-04-22, 03:41:04,VALID,1003,VALID,0,INVALID,163.731,VALID,0,VALID,24.3636,VALID,63,VALID,0.434766,
2011-04-22, 03:42:04,VALID,1003,VALID,0,INVALID,163.731,VALID,0,VALID,24.4238,VALID,71,VALID,0.307813,